Regional Weather Roundup
Issued by NWS

Home | Current Version | Previous Version | Graphics & Text | Print | Product List | Glossary On
Versions: 1 2 3 4 5 6 7 8 9 10 11 12 13 14 15 16 17 18 19 20 21 22 23 24 25 26 27 28 29 30 31 32 33 34 35 36 37 38 39 40 41 42 43 44 45 46 47 48 49 50
000
ASUS43 KDTX 050110
RWRMI
MICHIGAN HOURLY REGIONAL WEATHER ROUNDUP
NATIONAL WEATHER SERVICE DETROIT/PONTIAC MI
ISSUED BY NATIONAL WEATHER SERVICE GRAND RAPIDS MI
900 PM EDT FRI SEP 04 2015

NOTE: "FAIR" INDICATES FEW OR NO CLOUDS BELOW 12,000 FEET WITH NO
SIGNIFICANT WEATHER AND/OR OBSTRUCTION TO VISIBILITY.

MIZ047>049-052>055-059>063-066>070-074>076-081>083-050200-
SOUTHEAST LOWER MICHIGAN

CITY           SKY/WX    TMP DP  RH WIND       PRES   REMARKS
ADRIAN         MOCLDY    73  69  87 CALM      30.05R
ALMA           CLOUDY    72  71  96 CALM      30.05R FOG
ANN ARBOR      MOCLDY    74  70  87 CALM      30.05R
BAD AXE        LGT RAIN  72  70  94 E5        30.07R
DETROIT CITY   PTCLDY    74  68  81 SE6       30.05R
DETROIT        CLOUDY    75  69  81 E5        30.06R
FLINT          CLOUDY    77  69  76 NE3       30.05R
GROSSE ILE     MOCLDY    73  70  88 CALM      30.04R
HILLSDALE      CLOUDY    72  72 100 CALM      30.06S
HOWELL         MOCLDY    71  66  85 CALM      30.05R

CITY           SKY/WX    TMP DP  RH WIND       PRES   REMARKS
JACKSON        MOCLDY    70  68  93 SW3       30.05R
LANSING        MOCLDY    71  68  90 NE3       30.05R
MASON          MOCLDY    71  67  85 CALM      30.05R
MONROE         CLOUDY    74  70  88 SE7       30.04R
MT. CLEMENS    PTCLDY    72  68  88 SE1       30.05R
PONTIAC        CLOUDY    75  69  81 E6        30.06R
PORT HOPE        N/A     72  70  93 SE8       30.06R
PORT HURON     CLEAR     70  68  94 SE3       30.06R
TRI CITIES     MOCLDY    71  68  90 CALM      30.05R
YPSILANTI      MOCLDY    75  69  81 CALM      30.06R
$$
MIZ043>046-050>051-056>058-064>065-071>073-077>080-050200-
SOUTHWEST LOWER MICHIGAN

CITY           SKY/WX    TMP DP  RH WIND       PRES   REMARKS
BATTLE CREEK   CLOUDY    74  66  76 CALM      30.06R
BENTON HARBOR  LGT RAIN  68  65  90 CALM      30.04S
BIG RAPIDS     PTCLDY    67  66  96 CALM      30.05R
COLDWATER      CLOUDY    73  71  92 CALM      30.05R
HOLLAND        MOCLDY    70  66  87 NW5       30.05R
GRAND RAPIDS   CLOUDY    74  68  81 W3        30.05R
KALAMAZOO      MOCLDY    73  66  78 CALM      30.05R
MARSHALL       CLOUDY    72  68  88 CALM      30.05R
MOUNT PLEASANT CLOUDY    72  70  92 CALM      30.04S FOG
MUSKEGON       MOCLDY    70  66  87 CALM      30.05R
STURGIS        MOCLDY    73  72  94 CALM      30.05R
$$
MIZ016>042-050200-
NORTHERN LOWER MICHIGAN

CITY           SKY/WX    TMP DP  RH WIND       PRES   REMARKS
ALPENA         CLOUDY    72  64  76 E6        30.09R
BEAVER ISLAND  CLEAR     68  66  93 NE3       30.07R
BELLAIRE       PTCLDY    69  67  94 CALM      30.05S FOG
CADILLAC       CLOUDY    68  67  97 CALM      30.07R FOG
CHARLEVOIX     MOCLDY    73  70  89 SE6       30.09R
GAYLORD        CLOUDY    70  70 100 VRB3      30.10R
HOUGHTON LAKE  CLOUDY    69  67  93 E6        30.07S
MANISTEE       MOCLDY    68  64  88 CALM      30.05R
OSCODA         CLOUDY    71  67  86 E7        30.06S
PELLSTON       PTCLDY    71  67  87 SE7       30.08R
TRAVERSE CITY  MOCLDY    72  68  87 CALM      30.03S
LUDINGTON      MOCLDY    71  68  92 CALM      30.05R FOG
$$
MIZ007>008-015-050200-
EASTERN UPPER MICHIGAN

CITY           SKY/WX    TMP DP  RH WIND       PRES   REMARKS
KINROSS        CLEAR     72  66  83 E12       30.10S
MACKINAC ISLAN PTCLDY    66  64  95 E10G17    30.09R
NEWBERRY       CLEAR     71  67  87 SE8       30.10R
S. S. MARIE    CLEAR     73  65  75 SE8       30.10R
$$
MIZ004>006-011>014-085-050200-
CENTRAL UPPER MICHIGAN

CITY           SKY/WX    TMP DP  RH WIND       PRES   REMARKS
MANISTIQUE     CLOUDY    70  65  85 E5        30.07R
ESCANABA       PTCLDY    70  64  83 CALM      30.05S
MENOMINEE      CLEAR     66  63  88 CALM      30.05S
$$
MIZ001>003-009>011-084-050200-
WESTERN UPPER MICHIGAN

CITY           SKY/WX    TMP DP  RH WIND       PRES   REMARKS
IRON MOUNTAIN  CLEAR     71  64  78 SE7       30.07R
HOUGHTON       CLEAR     64  58  80 E10       30.05S
COPPER HARBOR    N/A     67  60  78 VRB5      30.06R
IRONWOOD       CLEAR     73  66  78 E5        29.98S
$$

ABBREVIATIONS USED IN REMARKS
   TC - TEMPERATURE IN CELSIUS
  WCI - WIND CHILL INDEX
   HX - HEAT INDEX
  VSB - VISIBILITY



USA.gov is the U.S. government's official web portal to all federal, state and local government web resources and services.